Location: Vihti�l�
(61.3833°N, 23.0667°E)
Time: 04:45:31
(UTC+00:00)

Cosmos 1709 Rocket - Pass Details

Date: 29 November 2020
Orbit: 947 x 1003 km, 82.9° (Epoch: 19 January)

Event Time Altitude Azimuth Distance (km) Brightness Sun altitude
Rises 03:17:15 0° 190° (S) 3,719 6.9 -25.8°
Reaches altitude 10° 03:19:46 10° 191° (S) 2,774 6.2 -25.5°
Maximum altitude 03:26:10 89° 100° (E) 1,013 4.0 -24.7°
Drops below altitude 10° 03:32:36 10° 14° (NNE) 2,783 6.5 -24.0°
Sets 03:35:08 0° 15° (NNE) 3,731 7.2 -23.7°
